Weather History for Medford, OR

Change the Weather History Date:

Monday, November 19, 2012

  Actual Average Record
Temperature  
Mean Temperature 58 °F 43 °F  
Max Temperature 64 °F 51 °F 67 °F (1936)
Min Temperature 51 °F 36 °F 17 °F (1964)
Degree Days  
Heating Degree Days 7 22  
Month to date heating degree days 313 356  
Since 1 July heating degree days 555 716  
Cooling Degree Days 0 0  
Month to date cooling degree days 0 0  
Year to date cooling degree days 960 829  
Growing Degree Days 8 (Base 50)    
Moisture  
Dew Point 39 °F    
Average Humidity 70    
Maximum Humidity 96    
Minimum Humidity 43    
Precipitation  
Precipitation 0.21 in 0.11 in 1.88 in (1926)
Month to date precipitation 0.83 1.76  
Year to date precipitation 16.91 13.60  
Snow  
Snow 0.00 in 0.00 in - ()
Month to date snowfall 0.0 0.1  
Since 1 July snowfall 0.0 0.1  
Snow Depth 0.00 in    
Sea Level Pressure  
Sea Level Pressure 29.82 in    
Wind  
Wind Speed 19 mph (SE)    
Max Wind Speed 33 mph    
Max Gust Speed 41 mph    
Visibility 10 miles    
Events Rain    
T = Trace of Precipitation, MM = Missing Value Source: NWS Daily Summary

Daily Weather History Graph

Daily Weather History Graph

Search for Another Location

Airport:

Trip Planner

Search our weather history database for the weather conditions in past years. The results will help you decide how hot, cold, wet, or windy it might be!

Date:

Astronomy

Nov. 19, 2012 Rise Set
Actual Time 7:07 AM PST 4:45 PM PST
Civil Twilight 6:37 AM PST 5:16 PM PST
Nautical Twilight 6:03 AM PST 5:50 PM PST
Astronomical Twilight 5:29 AM PST 6:23 PM PST
Moon 12:11 PM PST (11/19) 11:22 PM PST (11/19)
Length of Visible Light 10h 38m
Length of Day
9h 37m
Waxing Crescent, 42% of the Moon is Illuminated
Nov 19
Waxing Crescent
Nov 20
First Quarter
Nov 28
Full
Dec 6
Last Quarter
Dec 13
New

Hourly Weather History & Observations

Time (PST) Temp. Dew Point Humidity Pressure Visibility Wind Dir Wind Speed Gust Speed Precip Events Conditions
12:53 AM 51.1 °F 35.1 °F 54% 29.92 in 10.0 mi South 16.1 mph 24.2 mph N/A   Mostly Cloudy
1:53 AM 52.0 °F 35.1 °F 53% 29.92 in 10.0 mi South 16.1 mph - N/A   Partly Cloudy
2:53 AM 53.1 °F 35.1 °F 50% 29.91 in 10.0 mi SSE 18.4 mph 26.5 mph N/A   Scattered Clouds
3:53 AM 53.1 °F 35.1 °F 50% 29.89 in 10.0 mi SSE 24.2 mph 28.8 mph N/A   Mostly Cloudy
4:53 AM 53.1 °F 35.1 °F 50% 29.89 in 10.0 mi SSE 21.9 mph 32.2 mph N/A   Mostly Cloudy
5:53 AM 53.1 °F 36.0 °F 52% 29.88 in 10.0 mi SSE 27.6 mph 38.0 mph N/A   Clear
6:53 AM 54.0 °F 36.0 °F 51% 29.86 in 10.0 mi SSE 25.3 mph 35.7 mph N/A   Mostly Cloudy
7:53 AM 55.0 °F 36.0 °F 49% 29.86 in 10.0 mi SE 31.1 mph 39.1 mph N/A   Overcast
8:53 AM 55.0 °F 37.0 °F 51% 29.88 in 10.0 mi SSE 23.0 mph 33.4 mph N/A   Overcast
9:53 AM 55.9 °F 37.9 °F 51% 29.86 in 10.0 mi SSE 24.2 mph 34.5 mph N/A   Overcast
10:53 AM 60.8 °F 39.2 °F 45% 29.84 in 10.0 mi SSE 25.3 mph 38.0 mph N/A   Overcast
11:53 AM 60.1 °F 39.0 °F 46% 29.82 in 10.0 mi SE 24.2 mph 38.0 mph N/A   Overcast
12:53 PM 61.0 °F 39.9 °F 46% 29.79 in 10.0 mi SE 29.9 mph 41.4 mph N/A   Overcast
1:53 PM 62.1 °F 39.9 °F 44% 29.76 in 10.0 mi SE 29.9 mph 36.8 mph N/A   Overcast
2:53 PM 64.0 °F 41.0 °F 43% 29.74 in 10.0 mi SE 25.3 mph 36.8 mph N/A   Overcast
3:53 PM 61.0 °F 39.0 °F 44% 29.75 in 10.0 mi SSE 17.3 mph 26.5 mph N/A   Overcast
4:53 PM 60.1 °F 39.0 °F 46% 29.75 in 10.0 mi SSE 13.8 mph 21.9 mph N/A   Mostly Cloudy
5:53 PM 61.0 °F 39.9 °F 46% 29.75 in 10.0 mi SSE 10.4 mph 25.3 mph N/A   Overcast
6:53 PM 60.1 °F 39.0 °F 46% 29.73 in 10.0 mi SSE 13.8 mph 23.0 mph N/A   Overcast
7:53 PM 61.0 °F 39.0 °F 44% 29.73 in 10.0 mi South 8.1 mph 18.4 mph N/A   Overcast
8:53 PM 62.1 °F 39.9 °F 44% 29.75 in 10.0 mi SSE 11.5 mph 18.4 mph 0.00 in Rain Light Rain
9:53 PM 53.1 °F 48.9 °F 86% 29.81 in 10.0 mi North 6.9 mph - 0.01 in Rain Light Rain
10:29 PM 51.8 °F 50.0 °F 94% 29.82 in 10.0 mi ENE 10.4 mph - 0.04 in Rain Light Rain
10:53 PM 52.0 °F 50.0 °F 93% 29.81 in 8.0 mi NE 6.9 mph - 0.08 in Rain Rain
11:53 PM 52.0 °F 50.0 °F 93% 29.81 in 6.0 mi North 6.9 mph - 0.11 in Rain Rain